contact:dominique.lefevre@mio.osupytheas.fr, maurice.libes@osupytheas.fr, didier.mallarino@osupytheas.fr
Project:EMSO http://www.emso-fr.org/EMSO-France
Depth: 2436.0 m
Title:EMSO Ligure Ouest : Data MII capteur CSTAR
DateTime,Latitude,Longitude,Instrument_Serial,Reference_Counts,Signal_Counts,Corrected_Signal_raw_counts,Calculated_Beam_c_inverse_meters,Internal_thermistor_counts
DateTime,Latitude,Longitude,Instrument_Serial,Reference_Counts,Signal_Counts,Corrected_Signal_raw_counts,Calculated_Beam_c_inverse_meters,Internal_thermistor_counts
2023-02-25T00:02:28,42.805,6.029,CST-1368DR,4372,4745,11530,01.213,551
2023-02-25T00:05:30,42.805,6.029,CST-1368DR,4372,4737,11511,01.220,551
2023-02-25T00:08:32,42.805,6.029,CST-1368DR,4372,4742,11523,01.216,551
2023-02-25T00:11:33,42.805,6.029,CST-1368DR,4372,4741,11520,01.217,551
2023-02-25T00:14:35,42.805,6.029,CST-1368DR,4372,4736,11509,01.221,551
2023-02-25T00:17:36,42.805,6.029,CST-1368DR,4372,4737,11511,01.220,551
2023-02-25T00:20:38,42.805,6.029,CST-1368DR,4372,4732,11498,01.224,551
2023-02-25T00:23:40,42.805,6.029,CST-1368DR,4372,4751,11545,01.208,551
2023-02-25T00:26:41,42.805,6.029,CST-1368DR,4372,4736,11507,01.221,551
2023-02-25T00:29:43,42.805,6.029,CST-1368DR,4372,4737,11511,01.220,551
2023-02-25T00:32:44,42.805,6.029,CST-1368DR,4372,4735,11506,01.222,551
2023-02-25T00:35:46,42.805,6.029,CST-1368DR,4372,4734,11503,01.223,551
2023-02-25T00:38:47,42.805,6.029,CST-1368DR,4372,4738,11512,01.220,551
2023-02-25T00:41:49,42.805,6.029,CST-1368DR,4372,4733,11502,01.223,551
2023-02-25T00:44:51,42.805,6.029,CST-1368DR,4372,4734,11503,01.223,551
2023-02-25T00:47:52,42.805,6.029,CST-1368DR,4372,4734,11503,01.223,551
2023-02-25T00:50:54,42.805,6.029,CST-1368DR,4372,4736,11509,01.221,551
2023-02-25T00:53:55,42.805,6.029,CST-1368DR,4372,4737,11511,01.220,551
2023-02-25T00:56:57,42.805,6.029,CST-1368DR,4372,4739,11515,01.219,551
2023-02-25T00:59:58,42.805,6.029,CST-1368DR,4372,4734,11503,01.223,551
2023-02-25T01:03:00,42.805,6.029,CST-1368DR,4372,4735,11507,01.221,551
2023-02-25T01:06:02,42.805,6.029,CST-1368DR,4372,4736,11508,01.221,551
2023-02-25T01:09:03,42.805,6.029,CST-1368DR,4372,4734,11503,01.223,551
2023-02-25T01:12:05,42.805,6.029,CST-1368DR,4372,4740,11518,01.218,551
2023-02-25T01:15:06,42.805,6.029,CST-1368DR,4372,4733,11501,01.223,551
2023-02-25T01:18:08,42.805,6.029,CST-1368DR,4372,4736,11508,01.221,551
2023-02-25T01:21:10,42.805,6.029,CST-1368DR,4372,4737,11511,01.220,551
2023-02-25T01:24:11,42.805,6.029,CST-1368DR,4372,4733,11502,01.223,551
2023-02-25T01:27:13,42.805,6.029,CST-1368DR,4372,4737,11510,01.220,551
2023-02-25T01:30:14,42.805,6.029,CST-1368DR,4372,4737,11511,01.220,551
2023-02-25T01:33:16,42.805,6.029,CST-1368DR,4372,4733,11501,01.223,551
2023-02-25T01:36:17,42.805,6.029,CST-1368DR,4372,4738,11512,01.220,551
2023-02-25T01:39:19,42.805,6.029,CST-1368DR,4372,4738,11514,01.219,551
2023-02-25T01:42:21,42.805,6.029,CST-1368DR,4372,4730,11495,01.226,551
2023-02-25T01:45:22,42.805,6.029,CST-1368DR,4372,4744,11527,01.214,551
2023-02-25T01:48:24,42.805,6.029,CST-1368DR,4372,4732,11499,01.224,551
2023-02-25T01:51:25,42.805,6.029,CST-1368DR,4372,4739,11516,01.218,551
2023-02-25T01:54:27,42.805,6.029,CST-1368DR,4372,4735,11506,01.222,551
2023-02-25T01:57:28,42.805,6.029,CST-1368DR,4372,4740,11518,01.218,551
2023-02-25T02:00:30,42.805,6.029,CST-1368DR,4372,4735,11506,01.222,551
2023-02-25T02:03:32,42.805,6.029,CST-1368DR,4372,4734,11504,01.222,551
2023-02-25T02:06:33,42.805,6.029,CST-1368DR,4372,4737,11512,01.220,551
2023-02-25T02:09:35,42.805,6.029,CST-1368DR,4372,4734,11504,01.222,551
2023-02-25T02:12:36,42.805,6.029,CST-1368DR,4372,4737,11510,01.220,551
2023-02-25T02:15:38,42.805,6.029,CST-1368DR,4372,4736,11507,01.221,551
2023-02-25T02:18:40,42.805,6.029,CST-1368DR,4372,4740,11519,01.217,551
2023-02-25T02:21:41,42.805,6.029,CST-1368DR,4372,4735,11507,01.221,551
2023-02-25T02:24:43,42.805,6.029,CST-1368DR,4372,4741,11520,01.217,551
2023-02-25T02:27:44,42.805,6.029,CST-1368DR,4372,4736,11507,01.221,551
2023-02-25T02:30:46,42.805,6.029,CST-1368DR,4372,4737,11510,01.220,551
2023-02-25T02:33:47,42.805,6.029,CST-1368DR,4372,4740,11517,01.218,551
2023-02-25T02:36:49,42.805,6.029,CST-1368DR,4372,4737,11510,01.220,551
2023-02-25T02:39:51,42.805,6.029,CST-1368DR,4372,4730,11495,01.226,551
2023-02-25T02:42:52,42.805,6.029,CST-1368DR,4372,4736,11509,01.221,551
2023-02-25T02:45:54,42.805,6.029,CST-1368DR,4372,4731,11497,01.225,551
2023-02-25T02:48:55,42.805,6.029,CST-1368DR,4372,4735,11506,01.222,551
2023-02-25T02:51:57,42.805,6.029,CST-1368DR,4372,4745,11530,01.213,551
2023-02-25T02:54:58,42.805,6.029,CST-1368DR,4372,4735,11506,01.222,551
2023-02-25T02:58:00,42.805,6.029,CST-1368DR,4372,4739,11517,01.218,551
2023-02-25T03:01:02,42.805,6.029,CST-1368DR,4372,4737,11510,01.220,551
2023-02-25T03:04:03,42.805,6.029,CST-1368DR,4372,4733,11501,01.223,551
2023-02-25T03:07:05,42.805,6.029,CST-1368DR,4372,4737,11510,01.220,551
2023-02-25T03:10:06,42.805,6.029,CST-1368DR,4372,4736,11509,01.221,551
2023-02-25T03:13:08,42.805,6.029,CST-1368DR,4372,4747,11536,01.211,551
2023-02-25T03:16:09,42.805,6.029,CST-1368DR,4372,4736,11507,01.221,551
2023-02-25T03:19:11,42.805,6.029,CST-1368DR,4372,4738,11513,01.219,551
2023-02-25T03:22:13,42.805,6.029,CST-1368DR,4372,4737,11511,01.220,551
2023-02-25T03:25:14,42.805,6.029,CST-1368DR,4372,4740,11519,01.217,551
2023-02-25T03:28:16,42.805,6.029,CST-1368DR,4372,4737,11510,01.220,551
2023-02-25T03:31:17,42.805,6.029,CST-1368DR,4372,4737,11510,01.220,551
2023-02-25T03:34:19,42.805,6.029,CST-1368DR,4372,4745,11530,01.213,551
2023-02-25T03:37:21,42.805,6.029,CST-1368DR,4372,4740,11517,01.218,551
2023-02-25T03:40:22,42.805,6.029,CST-1368DR,4372,4739,11516,01.218,551
2023-02-25T03:43:24,42.805,6.029,CST-1368DR,4372,4735,11506,01.222,551
2023-02-25T03:46:25,42.805,6.029,CST-1368DR,4372,4738,11512,01.220,551
2023-02-25T03:49:27,42.805,6.029,CST-1368DR,4372,4732,11499,01.224,551
2023-02-25T03:52:28,42.805,6.029,CST-1368DR,4372,4737,11510,01.220,551
2023-02-25T03:55:30,42.805,6.029,CST-1368DR,4372,4738,11512,01.220,551
2023-02-25T03:58:32,42.805,6.029,CST-1368DR,4372,4738,11514,01.219,551
2023-02-25T04:01:33,42.805,6.029,CST-1368DR,4372,4739,11517,01.218,551
2023-02-25T04:04:35,42.805,6.029,CST-1368DR,4372,4740,11517,01.218,551
2023-02-25T04:07:36,42.805,6.029,CST-1368DR,4372,4740,11518,01.218,551
2023-02-25T04:10:38,42.805,6.029,CST-1368DR,4372,4741,11521,01.216,551
2023-02-25T04:13:39,42.805,6.029,CST-1368DR,4372,4745,11530,01.213,551
2023-02-25T04:16:41,42.805,6.029,CST-1368DR,4371,4730,11497,01.225,551
2023-02-25T04:19:43,42.805,6.029,CST-1368DR,4372,4736,11509,01.221,551
2023-02-25T04:22:44,42.805,6.029,CST-1368DR,4372,4739,11515,01.219,551
2023-02-25T04:25:46,42.805,6.029,CST-1368DR,4372,4733,11502,01.223,551
2023-02-25T04:28:47,42.805,6.029,CST-1368DR,4371,4721,11475,01.233,551
2023-02-25T04:31:49,42.805,6.029,CST-1368DR,4372,4734,11504,01.222,551
2023-02-25T04:34:50,42.805,6.029,CST-1368DR,4371,4734,11506,01.222,551
2023-02-25T04:37:52,42.805,6.029,CST-1368DR,4371,4732,11501,01.223,551
2023-02-25T04:40:54,42.805,6.029,CST-1368DR,4372,4734,11503,01.223,551
2023-02-25T04:43:55,42.805,6.029,CST-1368DR,4372,4733,11501,01.223,551
2023-02-25T04:46:57,42.805,6.029,CST-1368DR,4372,4737,11510,01.220,551
2023-02-25T04:49:58,42.805,6.029,CST-1368DR,4372,4742,11522,01.216,551
2023-02-25T04:53:00,42.805,6.029,CST-1368DR,4372,4736,11508,01.221,551
2023-02-25T04:56:02,42.805,6.029,CST-1368DR,4372,4745,11530,01.213,551
2023-02-25T04:59:03,42.805,6.029,CST-1368DR,4372,4735,11506,01.222,551
2023-02-25T05:02:05,42.805,6.029,CST-1368DR,4372,4737,11512,01.220,551
2023-02-25T05:05:06,42.805,6.029,CST-1368DR,4372,4738,11514,01.219,551
2023-02-25T05:08:08,42.805,6.029,CST-1368DR,4372,4734,11503,01.223,551
2023-02-25T05:11:09,42.805,6.029,CST-1368DR,4372,4742,11522,01.216,551
2023-02-25T05:14:11,42.805,6.029,CST-1368DR,4371,4742,11524,01.215,551
2023-02-25T05:17:13,42.805,6.029,CST-1368DR,4372,4740,11518,01.218,551
2023-02-25T05:20:14,42.805,6.029,CST-1368DR,4372,4735,11507,01.221,551
2023-02-25T05:23:16,42.805,6.029,CST-1368DR,4372,4736,11509,01.221,551
2023-02-25T05:26:17,42.805,6.029,CST-1368DR,4372,4740,11518,01.218,551
2023-02-25T05:29:19,42.805,6.029,CST-1368DR,4371,4737,11514,01.219,551
2023-02-25T05:32:20,42.805,6.029,CST-1368DR,4372,4735,11506,01.222,551
2023-02-25T05:35:22,42.805,6.029,CST-1368DR,4372,4738,11514,01.219,551
2023-02-25T05:38:24,42.805,6.029,CST-1368DR,4371,4733,11504,01.222,551
2023-02-25T05:41:25,42.805,6.029,CST-1368DR,4371,4737,11513,01.219,551
2023-02-25T05:44:27,42.805,6.029,CST-1368DR,4371,4741,11523,01.216,551
2023-02-25T05:47:28,42.805,6.029,CST-1368DR,4372,4737,11510,01.220,551
2023-02-25T05:50:30,42.805,6.029,CST-1368DR,4371,4735,11509,01.221,551
2023-02-25T05:53:31,42.805,6.029,CST-1368DR,4372,4742,11522,01.216,551
2023-02-25T05:56:33,42.805,6.029,CST-1368DR,4372,4741,11521,01.216,551
2023-02-25T05:59:35,42.805,6.029,CST-1368DR,4371,4741,11523,01.216,551
2023-02-25T06:02:36,42.805,6.029,CST-1368DR,4371,4735,11508,01.221,551
2023-02-25T06:05:38,42.805,6.029,CST-1368DR,4371,4740,11521,01.216,551
2023-02-25T06:08:39,42.805,6.029,CST-1368DR,4371,4736,11511,01.220,551
2023-02-25T06:11:41,42.805,6.029,CST-1368DR,4371,4734,11507,01.221,551
2023-02-25T06:14:43,42.805,6.029,CST-1368DR,4371,4734,11506,01.222,551
2023-02-25T06:17:44,42.805,6.029,CST-1368DR,4371,4737,11514,01.219,551
2023-02-25T06:20:46,42.805,6.029,CST-1368DR,4371,4739,11517,01.218,551
2023-02-25T06:23:47,42.805,6.029,CST-1368DR,4371,4737,11512,01.220,551
2023-02-25T06:26:49,42.805,6.029,CST-1368DR,4371,4733,11504,01.222,551
2023-02-25T06:29:50,42.805,6.029,CST-1368DR,4372,4752,11547,01.207,551
2023-02-25T06:32:52,42.805,6.029,CST-1368DR,4372,4751,11544,01.209,551
2023-02-25T06:35:54,42.805,6.029,CST-1368DR,4371,4745,11533,01.212,551
2023-02-25T06:38:55,42.805,6.029,CST-1368DR,4371,4745,11532,01.213,551
2023-02-25T06:41:57,42.805,6.029,CST-1368DR,4371,4736,11511,01.220,551
2023-02-25T06:44:58,42.805,6.029,CST-1368DR,4371,4721,11473,01.233,551
2023-02-25T06:48:00,42.805,6.029,CST-1368DR,4371,4714,11456,01.239,551
2023-02-25T06:51:01,42.805,6.029,CST-1368DR,4371,4713,11456,01.239,551
2023-02-25T06:54:03,42.805,6.029,CST-1368DR,4371,4713,11456,01.239,551
2023-02-25T06:57:05,42.805,6.029,CST-1368DR,4371,4702,11429,01.249,551
2023-02-25T07:00:06,42.805,6.029,CST-1368DR,4371,4709,11444,01.243,551
2023-02-25T07:03:08,42.805,6.029,CST-1368DR,4371,4710,11448,01.242,551
2023-02-25T07:06:09,42.805,6.029,CST-1368DR,4371,4711,11451,01.241,551
2023-02-25T07:09:11,42.805,6.029,CST-1368DR,4371,4706,11437,01.246,551
2023-02-25T07:12:13,42.805,6.029,CST-1368DR,4371,4709,11446,01.243,551
2023-02-25T07:15:14,42.805,6.029,CST-1368DR,4371,4710,11447,01.242,551
2023-02-25T07:18:16,42.805,6.029,CST-1368DR,4371,4710,11447,01.242,551
2023-02-25T07:21:17,42.805,6.029,CST-1368DR,4371,4708,11442,01.244,551
2023-02-25T07:24:19,42.805,6.029,CST-1368DR,4371,4710,11448,01.242,551
2023-02-25T07:27:20,42.805,6.029,CST-1368DR,4371,4709,11446,01.243,551
2023-02-25T07:30:22,42.805,6.029,CST-1368DR,4371,4712,11452,01.241,551
2023-02-25T07:33:24,42.805,6.029,CST-1368DR,4371,4705,11435,01.246,551
2023-02-25T07:36:25,42.805,6.029,CST-1368DR,4371,4718,11467,01.235,551
2023-02-25T07:39:27,42.805,6.029,CST-1368DR,4371,4707,11440,01.245,551
2023-02-25T07:42:28,42.805,6.029,CST-1368DR,4371,4708,11444,01.243,551
2023-02-25T07:45:30,42.805,6.029,CST-1368DR,4371,4717,11466,01.236,551
2023-02-25T07:48:31,42.805,6.029,CST-1368DR,4371,4699,11421,01.251,551
2023-02-25T07:51:33,42.805,6.029,CST-1368DR,4371,4708,11442,01.244,551
2023-02-25T07:54:35,42.805,6.029,CST-1368DR,4371,4714,11456,01.239,551
2023-02-25T07:57:36,42.805,6.029,CST-1368DR,4371,4710,11447,01.242,551
2023-02-25T08:00:38,42.805,6.029,CST-1368DR,4371,4714,11457,01.239,551
2023-02-25T08:03:39,42.805,6.029,CST-1368DR,4371,4705,11435,01.246,551
2023-02-25T08:06:41,42.805,6.029,CST-1368DR,4371,4705,11436,01.246,551
2023-02-25T08:09:43,42.805,6.029,CST-1368DR,4371,4706,11439,01.245,551
2023-02-25T08:12:44,42.805,6.029,CST-1368DR,4371,4704,11433,01.247,551
2023-02-25T08:15:46,42.805,6.029,CST-1368DR,4371,4703,11432,01.248,551
2023-02-25T08:18:47,42.805,6.029,CST-1368DR,4371,4703,11431,01.248,551
2023-02-25T08:21:49,42.805,6.029,CST-1368DR,4371,4706,11439,01.245,551
2023-02-25T08:24:50,42.805,6.029,CST-1368DR,4371,4704,11433,01.247,551
2023-02-25T08:27:52,42.805,6.029,CST-1368DR,4371,4703,11430,01.248,551
2023-02-25T08:30:54,42.805,6.029,CST-1368DR,4371,4700,11423,01.251,551
2023-02-25T08:33:55,42.805,6.029,CST-1368DR,4371,4709,11444,01.243,551
2023-02-25T08:36:57,42.805,6.029,CST-1368DR,4371,4703,11430,01.248,551
2023-02-25T08:39:58,42.805,6.029,CST-1368DR,4371,4706,11438,01.245,551
2023-02-25T08:43:00,42.805,6.029,CST-1368DR,4371,4704,11432,01.248,551
2023-02-25T08:46:01,42.805,6.029,CST-1368DR,4371,4703,11430,01.248,551
2023-02-25T08:49:03,42.805,6.029,CST-1368DR,4371,4698,11419,01.252,551
2023-02-25T08:52:05,42.805,6.029,CST-1368DR,4371,4694,11408,01.256,551
2023-02-25T08:55:06,42.805,6.029,CST-1368DR,4371,4694,11410,01.255,551
2023-02-25T08:58:08,42.805,6.029,CST-1368DR,4371,4709,11445,01.243,551
2023-02-25T09:01:09,42.805,6.029,CST-1368DR,4371,4702,11427,01.249,551
2023-02-25T09:04:11,42.805,6.029,CST-1368DR,4371,4701,11426,01.250,551
2023-02-25T09:07:12,42.805,6.029,CST-1368DR,4371,4703,11431,01.248,551
2023-02-25T09:10:14,42.805,6.029,CST-1368DR,4371,4708,11442,01.244,551
2023-02-25T09:13:16,42.805,6.029,CST-1368DR,4371,4696,11415,01.253,551
2023-02-25T09:16:17,42.805,6.029,CST-1368DR,4371,4709,11444,01.243,551
2023-02-25T09:19:19,42.805,6.029,CST-1368DR,4371,4706,11438,01.245,551
2023-02-25T09:22:20,42.805,6.029,CST-1368DR,4371,4721,11474,01.233,551
2023-02-25T09:25:22,42.805,6.029,CST-1368DR,4371,4702,11429,01.249,551
2023-02-25T09:28:24,42.805,6.029,CST-1368DR,4371,4718,11468,01.235,551
2023-02-25T09:31:25,42.805,6.029,CST-1368DR,4371,4713,11455,01.239,551
2023-02-25T09:34:27,42.805,6.029,CST-1368DR,4371,4707,11439,01.245,551
2023-02-25T09:37:28,42.805,6.029,CST-1368DR,4371,4709,11444,01.243,551
2023-02-25T09:40:30,42.805,6.029,CST-1368DR,4371,4707,11440,01.245,551
2023-02-25T09:43:31,42.805,6.029,CST-1368DR,4371,4715,11459,01.238,551
2023-02-25T09:46:33,42.805,6.029,CST-1368DR,4371,4708,11444,01.243,551
2023-02-25T09:49:35,42.805,6.029,CST-1368DR,4371,4706,11439,01.245,551
2023-02-25T09:52:36,42.805,6.029,CST-1368DR,4371,4707,11440,01.245,551
2023-02-25T09:55:38,42.805,6.029,CST-1368DR,4371,4712,11452,01.241,551
2023-02-25T09:58:39,42.805,6.029,CST-1368DR,4371,4711,11449,01.242,551
2023-02-25T10:01:41,42.805,6.029,CST-1368DR,4371,4714,11456,01.239,551
2023-02-25T10:04:42,42.805,6.029,CST-1368DR,4371,4714,11456,01.239,551
2023-02-25T10:07:44,42.805,6.029,CST-1368DR,4371,4712,11453,01.240,551
2023-02-25T10:10:46,42.805,6.029,CST-1368DR,4371,4718,11467,01.235,551
2023-02-25T10:13:47,42.805,6.029,CST-1368DR,4371,4711,11451,01.241,551
2023-02-25T10:16:49,42.805,6.029,CST-1368DR,4371,4703,11430,01.248,551
2023-02-25T10:19:50,42.805,6.029,CST-1368DR,4371,4710,11449,01.242,551
2023-02-25T10:22:52,42.805,6.029,CST-1368DR,4371,4706,11437,01.246,551
2023-02-25T10:25:54,42.805,6.029,CST-1368DR,4371,4714,11456,01.239,551
2023-02-25T10:28:55,42.805,6.029,CST-1368DR,4371,4708,11442,01.244,551
2023-02-25T10:31:57,42.805,6.029,CST-1368DR,4371,4697,11416,01.253,551
2023-02-25T10:34:58,42.805,6.029,CST-1368DR,4371,4705,11435,01.246,551
2023-02-25T10:38:00,42.805,6.029,CST-1368DR,4371,4717,11465,01.236,551
2023-02-25T10:41:01,42.805,6.029,CST-1368DR,4371,4713,11455,01.239,551
2023-02-25T10:44:03,42.805,6.029,CST-1368DR,4371,4715,11460,01.238,551
2023-02-25T10:47:05,42.805,6.029,CST-1368DR,4371,4714,11456,01.239,551
2023-02-25T10:50:06,42.805,6.029,CST-1368DR,4371,4711,11451,01.241,551
2023-02-25T10:53:08,42.805,6.029,CST-1368DR,4371,4715,11459,01.238,551
2023-02-25T10:56:09,42.805,6.029,CST-1368DR,4371,4729,11494,01.226,551
2023-02-25T10:59:11,42.805,6.029,CST-1368DR,4371,4724,11481,01.230,551
2023-02-25T11:02:12,42.805,6.029,CST-1368DR,4371,4722,11477,01.232,551
2023-02-25T11:05:14,42.805,6.029,CST-1368DR,4371,4714,11458,01.238,551
2023-02-25T11:08:16,42.805,6.029,CST-1368DR,4371,4722,11476,01.232,551
2023-02-25T11:11:17,42.805,6.029,CST-1368DR,4371,4721,11473,01.233,551
2023-02-25T11:14:19,42.805,6.029,CST-1368DR,4371,4730,11496,01.225,551
2023-02-25T11:17:20,42.805,6.029,CST-1368DR,4371,4716,11461,01.237,551
2023-02-25T11:20:22,42.805,6.029,CST-1368DR,4371,4717,11464,01.236,551
2023-02-25T11:23:23,42.805,6.029,CST-1368DR,4371,4706,11439,01.245,551
2023-02-25T11:26:25,42.805,6.029,CST-1368DR,4371,4713,11454,01.240,551
2023-02-25T11:29:27,42.805,6.029,CST-1368DR,4371,4712,11453,01.240,551
2023-02-25T11:32:28,42.805,6.029,CST-1368DR,4371,4722,11476,01.232,551
2023-02-25T11:35:30,42.805,6.029,CST-1368DR,4371,4717,11464,01.236,551
2023-02-25T11:38:31,42.805,6.029,CST-1368DR,4371,4711,11450,01.241,551
2023-02-25T11:41:33,42.805,6.029,CST-1368DR,4371,4718,11467,01.235,551
2023-02-25T11:44:35,42.805,6.029,CST-1368DR,4371,4719,11469,01.235,551
2023-02-25T11:47:36,42.805,6.029,CST-1368DR,4371,4717,11464,01.236,551
2023-02-25T11:50:38,42.805,6.029,CST-1368DR,4371,4717,11464,01.236,551
2023-02-25T11:53:39,42.805,6.029,CST-1368DR,4371,4710,11449,01.242,551
2023-02-25T11:56:41,42.805,6.029,CST-1368DR,4371,4719,11470,01.234,551
2023-02-25T11:59:42,42.805,6.029,CST-1368DR,4371,4716,11463,01.237,551
2023-02-25T12:02:44,42.805,6.029,CST-1368DR,4371,4704,11434,01.247,551
2023-02-25T12:05:46,42.805,6.029,CST-1368DR,4371,4716,11462,01.237,551
2023-02-25T12:08:47,42.805,6.029,CST-1368DR,4371,4715,11459,01.238,551
2023-02-25T12:11:49,42.805,6.029,CST-1368DR,4371,4716,11461,01.237,551
2023-02-25T12:14:50,42.805,6.029,CST-1368DR,4371,4716,11463,01.237,551
2023-02-25T12:17:52,42.805,6.029,CST-1368DR,4371,4710,11447,01.242,551
2023-02-25T12:20:53,42.805,6.029,CST-1368DR,4371,4716,11463,01.237,551
2023-02-25T12:23:55,42.805,6.029,CST-1368DR,4371,4721,11474,01.233,551
2023-02-25T12:26:57,42.805,6.029,CST-1368DR,4371,4711,11451,01.241,551
2023-02-25T12:29:58,42.805,6.029,CST-1368DR,4371,4706,11438,01.245,551
2023-02-25T12:33:00,42.805,6.029,CST-1368DR,4371,4709,11444,01.243,551
2023-02-25T12:36:01,42.805,6.029,CST-1368DR,4371,4709,11446,01.243,551
2023-02-25T12:39:03,42.805,6.029,CST-1368DR,4371,4710,11447,01.242,551
2023-02-25T12:42:05,42.805,6.029,CST-1368DR,4371,4707,11441,01.244,551
2023-02-25T12:45:06,42.805,6.029,CST-1368DR,4371,4710,11447,01.242,551
2023-02-25T12:48:08,42.805,6.029,CST-1368DR,4371,4710,11447,01.242,551
2023-02-25T12:51:09,42.805,6.029,CST-1368DR,4371,4714,11457,01.239,551
2023-02-25T12:54:11,42.805,6.029,CST-1368DR,4371,4706,11438,01.245,551
2023-02-25T12:57:12,42.805,6.029,CST-1368DR,4371,4709,11444,01.243,551
2023-02-25T13:00:14,42.805,6.029,CST-1368DR,4371,4708,11442,01.244,551
2023-02-25T13:03:16,42.805,6.029,CST-1368DR,4371,4714,11458,01.238,551
2023-02-25T13:06:17,42.805,6.029,CST-1368DR,4371,4708,11442,01.244,551
2023-02-25T13:09:19,42.805,6.029,CST-1368DR,4371,4712,11453,01.240,551
2023-02-25T13:12:20,42.805,6.029,CST-1368DR,4371,4703,11430,01.248,551
2023-02-25T13:15:22,42.805,6.029,CST-1368DR,4371,4686,11390,01.262,551
2023-02-25T13:18:24,42.805,6.029,CST-1368DR,4371,4703,11431,01.248,551
2023-02-25T13:21:25,42.805,6.029,CST-1368DR,4371,4701,11427,01.249,551
2023-02-25T13:24:27,42.805,6.029,CST-1368DR,4371,4690,11400,01.259,551
2023-02-25T13:27:28,42.805,6.029,CST-1368DR,4371,4732,11501,01.223,551
2023-02-25T13:30:30,42.805,6.029,CST-1368DR,4371,4732,11500,01.224,551
2023-02-25T13:33:31,42.805,6.029,CST-1368DR,4371,4732,11502,01.223,551
2023-02-25T13:36:33,42.805,6.029,CST-1368DR,4371,4734,11506,01.222,551
2023-02-25T13:39:35,42.805,6.029,CST-1368DR,4371,4730,11495,01.226,551
2023-02-25T13:42:36,42.805,6.029,CST-1368DR,4371,4744,11531,01.213,551
2023-02-25T13:45:38,42.805,6.029,CST-1368DR,4371,4728,11492,01.227,551
2023-02-25T13:48:39,42.805,6.029,CST-1368DR,4371,4727,11489,01.228,551
2023-02-25T13:51:41,42.805,6.029,CST-1368DR,4371,4721,11474,01.233,551
2023-02-25T13:54:42,42.805,6.029,CST-1368DR,4371,4722,11477,01.232,551
2023-02-25T13:57:44,42.805,6.029,CST-1368DR,4371,4720,11472,01.234,551
2023-02-25T14:00:46,42.805,6.029,CST-1368DR,4371,4724,11482,01.230,551
2023-02-25T14:03:47,42.805,6.029,CST-1368DR,4371,4726,11486,01.229,551
2023-02-25T14:06:49,42.805,6.029,CST-1368DR,4371,4739,11518,01.218,551
2023-02-25T14:09:50,42.805,6.029,CST-1368DR,4371,4738,11516,01.218,551
2023-02-25T14:12:52,42.805,6.029,CST-1368DR,4371,4740,11521,01.216,551
2023-02-25T14:15:53,42.805,6.029,CST-1368DR,4371,4740,11520,01.217,551
2023-02-25T14:18:55,42.805,6.029,CST-1368DR,4371,4738,11515,01.219,551
2023-02-25T14:21:57,42.805,6.029,CST-1368DR,4371,4745,11534,01.212,551
2023-02-25T14:24:58,42.805,6.029,CST-1368DR,4371,4740,11521,01.216,551
2023-02-25T14:28:00,42.805,6.029,CST-1368DR,4371,4740,11520,01.217,551
2023-02-25T14:31:01,42.805,6.029,CST-1368DR,4371,4741,11523,01.216,551
2023-02-25T14:34:03,42.805,6.029,CST-1368DR,4371,4741,11523,01.216,551
2023-02-25T14:37:05,42.805,6.029,CST-1368DR,4371,4744,11531,01.213,551
2023-02-25T14:40:06,42.805,6.029,CST-1368DR,4371,4741,11522,01.216,551
2023-02-25T14:43:08,42.805,6.029,CST-1368DR,4371,4733,11504,01.222,551
2023-02-25T14:46:09,42.805,6.029,CST-1368DR,4371,4744,11531,01.213,551
2023-02-25T14:49:11,42.805,6.029,CST-1368DR,4371,4742,11526,01.215,551
2023-02-25T14:52:12,42.805,6.029,CST-1368DR,4371,4746,11535,01.212,551
2023-02-25T14:55:14,42.805,6.029,CST-1368DR,4371,4742,11525,01.215,551
2023-02-25T14:58:16,42.805,6.029,CST-1368DR,4371,4748,11539,01.210,551
2023-02-25T15:01:17,42.805,6.029,CST-1368DR,4371,4742,11526,01.215,551
2023-02-25T15:04:19,42.805,6.029,CST-1368DR,4371,4748,11541,01.210,551
2023-02-25T15:07:20,42.805,6.029,CST-1368DR,4371,4743,11527,01.214,551
2023-02-25T15:10:22,42.805,6.029,CST-1368DR,4371,4750,11544,01.209,551
2023-02-25T15:13:24,42.805,6.029,CST-1368DR,4371,4743,11527,01.214,551
2023-02-25T15:16:25,42.805,6.029,CST-1368DR,4371,4744,11530,01.213,551
2023-02-25T15:19:27,42.805,6.029,CST-1368DR,4371,4745,11534,01.212,551
2023-02-25T15:22:28,42.805,6.029,CST-1368DR,4371,4747,11537,01.211,551
2023-02-25T15:25:30,42.805,6.029,CST-1368DR,4371,4743,11528,01.214,551
2023-02-25T15:28:31,42.805,6.029,CST-1368DR,4371,4747,11537,01.211,551
2023-02-25T15:31:33,42.805,6.029,CST-1368DR,4371,4747,11537,01.211,551
2023-02-25T15:34:35,42.805,6.029,CST-1368DR,4371,4743,11528,01.214,551
2023-02-25T15:37:36,42.805,6.029,CST-1368DR,4371,4746,11535,01.212,551
2023-02-25T15:40:38,42.805,6.029,CST-1368DR,4371,4743,11528,01.214,551
2023-02-25T15:43:39,42.805,6.029,CST-1368DR,4371,4742,11525,01.215,551
2023-02-25T15:46:41,42.805,6.029,CST-1368DR,4371,4742,11526,01.215,551
2023-02-25T15:49:42,42.805,6.029,CST-1368DR,4371,4746,11536,01.211,551
2023-02-25T15:52:44,42.805,6.029,CST-1368DR,4371,4743,11528,01.214,551
2023-02-25T15:55:46,42.805,6.029,CST-1368DR,4371,4741,11522,01.216,551
2023-02-25T15:58:47,42.805,6.029,CST-1368DR,4371,4740,11520,01.217,551
2023-02-25T16:01:49,42.805,6.029,CST-1368DR,4371,4743,11527,01.214,551
2023-02-25T16:04:50,42.805,6.029,CST-1368DR,4371,4744,11531,01.213,551
2023-02-25T16:07:52,42.805,6.029,CST-1368DR,4371,4742,11526,01.215,551
2023-02-25T16:10:54,42.805,6.029,CST-1368DR,4371,4743,11527,01.214,551
2023-02-25T16:13:55,42.805,6.029,CST-1368DR,4371,4744,11531,01.213,551
2023-02-25T16:16:57,42.805,6.029,CST-1368DR,4371,4741,11523,01.216,551
2023-02-25T16:19:58,42.805,6.029,CST-1368DR,4371,4744,11530,01.213,551
2023-02-25T16:23:00,42.805,6.029,CST-1368DR,4371,4746,11536,01.211,551
2023-02-25T16:26:01,42.805,6.029,CST-1368DR,4371,4743,11529,01.214,551
2023-02-25T16:29:03,42.805,6.029,CST-1368DR,4371,4742,11525,01.215,551
2023-02-25T16:32:05,42.805,6.029,CST-1368DR,4371,4743,11528,01.214,551
2023-02-25T16:35:06,42.805,6.029,CST-1368DR,4371,4745,11532,01.213,551
2023-02-25T16:38:08,42.805,6.029,CST-1368DR,4371,4743,11527,01.214,551